• en France
  • Liste des pays
  • À 7 jours
  • Température de l'eau
  • Carte satellitaire
  • Carte météo
  • Widgets météo
  • user-avatar
    Se connecter

    Météo par heure à Myza

    Ce jour, 22 Juillet, Dimanche

    Heure Température Précipitation Vent Pression Humidité
    00:00 +20°C° 0 mm 1 m/s 747 mmHg 87%
    01:00 +19°C° 0 mm 1 m/s 747 mmHg 88%
    02:00 +19°C° 0 mm 1 m/s 747 mmHg 90%
    03:00 +19°C° 0 mm 1 m/s 747 mmHg 91%
    04:00 +19°C° 0 mm 1 m/s 747 mmHg 91%
    05:00 +19°C° 0 mm 1 m/s 748 mmHg 92%
    06:00 +20°C° 0,1 mm 1 m/s 748 mmHg 89%
    07:00 +21°C° 0,1 mm 1 m/s 748 mmHg 85%
    08:00 +23°C° 0,1 mm 1 m/s 748 mmHg 82%
    09:00 +23°C° 0,1 mm 1 m/s 748 mmHg 79%
    10:00 +24°C° 0,1 mm 1 m/s 748 mmHg 76%
    11:00 +25°C° 0,1 mm 1 m/s 748 mmHg 73%
    12:00 +26°C° 0,1 mm 1 m/s 748 mmHg 72%
    13:00 +26°C° 0,1 mm 1 m/s 748 mmHg 70%
    14:00 +26°C° 0,1 mm 1 m/s 748 mmHg 69%
    15:00 +26°C° 0,2 mm 1 m/s 748 mmHg 72%
    16:00 +26°C° 0,2 mm 1 m/s 748 mmHg 74%
    17:00 +26°C° 0,2 mm 1 m/s 748 mmHg 76%
    18:00 +25°C° 0,4 mm 1 m/s 748 mmHg 81%
    19:00 +24°C° 0,4 mm 1 m/s 748 mmHg 86%
    20:00 +22°C° 0,4 mm 1 m/s 748 mmHg 91%
    21:00 +22°C° 0,2 mm 1 m/s 748 mmHg 92%
    22:00 +21°C° 0,2 mm 1 m/s 748 mmHg 93%
    23:00 +21°C° 0,2 mm 1 m/s 749 mmHg 94%

    Demain, 23 Juillet, Lundi

    Heure Température Précipitation Vent Pression Humidité
    00:00 +21°C° 0,1 mm 1 m/s 749 mmHg 95%
    01:00 +20°C° 0,1 mm 1 m/s 749 mmHg 95%
    02:00 +20°C° 0,1 mm 1 m/s 749 mmHg 96%
    03:00 +20°C° 0,1 mm 1 m/s 749 mmHg 96%
    04:00 +20°C° 0,1 mm 1 m/s 749 mmHg 96%
    05:00 +20°C° 0,1 mm 1 m/s 749 mmHg 97%
    06:00 +21°C° 0,2 mm 1 m/s 749 mmHg 96%
    07:00 +21°C° 0,2 mm 1 m/s 749 mmHg 94%
    08:00 +22°C° 0,2 mm 1 m/s 749 mmHg 93%
    09:00 +22°C° 0,8 mm 1 m/s 749 mmHg 91%
    10:00 +23°C° 0,8 mm 1 m/s 750 mmHg 89%
    11:00 +24°C° 0,8 mm 2 m/s 750 mmHg 87%
    12:00 +24°C° 0,9 mm 2 m/s 749 mmHg 84%
    13:00 +25°C° 0,9 mm 2 m/s 749 mmHg 80%
    14:00 +25°C° 0,9 mm 2 m/s 749 mmHg 77%
    15:00 +26°C° 0,4 mm 2 m/s 749 mmHg 76%
    16:00 +26°C° 0,4 mm 2 m/s 749 mmHg 75%
    17:00 +26°C° 0,4 mm 1 m/s 749 mmHg 75%
    18:00 +25°C° 0,1 mm 1 m/s 749 mmHg 79%
    19:00 +23°C° 0,1 mm 1 m/s 749 mmHg 83%
    20:00 +21°C° 0,1 mm 2 m/s 749 mmHg 88%
    21:00 +20°C° 0 mm 2 m/s 750 mmHg 90%
    22:00 +19°C° 0 mm 2 m/s 750 mmHg 93%
    23:00 +18°C° 0 mm 2 m/s 750 mmHg 95%

    Après-demain, 24 Juillet, Mardi

    Heure Température Précipitation Vent Pression Humidité
    00:00 +18°C° 0 mm 2 m/s 750 mmHg 96%
    01:00 +18°C° 0 mm 2 m/s 750 mmHg 97%
    02:00 +18°C° 0 mm 1 m/s 750 mmHg 97%
    03:00 +18°C° 0 mm 1 m/s 750 mmHg 97%
    04:00 +18°C° 0 mm 1 m/s 750 mmHg 97%
    05:00 +18°C° 0 mm 1 m/s 750 mmHg 97%
    06:00 +18°C° 0 mm 2 m/s 751 mmHg 91%
    07:00 +20°C° 0 mm 2 m/s 751 mmHg 85%
    08:00 +21°C° 0 mm 2 m/s 751 mmHg 79%
    09:00 +23°C° 0,1 mm 2 m/s 751 mmHg 75%
    10:00 +24°C° 0,1 mm 2 m/s 751 mmHg 71%
    11:00 +26°C° 0,1 mm 3 m/s 751 mmHg 66%
    12:00 +26°C° 0,7 mm 3 m/s 750 mmHg 68%
    13:00 +26°C° 0,7 mm 3 m/s 750 mmHg 70%
    14:00 +26°C° 0,7 mm 3 m/s 750 mmHg 72%
    15:00 +26°C° 0,7 mm 3 m/s 750 mmHg 74%
    16:00 +26°C° 0,7 mm 3 m/s 750 mmHg 76%
    17:00 +26°C° 0,7 mm 3 m/s 750 mmHg 79%
    18:00 +24°C° 0,6 mm 3 m/s 750 mmHg 83%
    19:00 +23°C° 0,6 mm 2 m/s 750 mmHg 87%
    20:00 +21°C° 0,6 mm 2 m/s 750 mmHg 92%
    21:00 +20°C° 0 mm 2 m/s 751 mmHg 94%
    22:00 +19°C° 0 mm 2 m/s 751 mmHg 96%
    23:00 +19°C° 0 mm 2 m/s 751 mmHg 97%

    25 Juillet, Mercredi

    Heure Température Précipitation Vent Pression Humidité
    00:00 +18°C° 0 mm 2 m/s 751 mmHg 98%
    01:00 +18°C° 0 mm 2 m/s 751 mmHg 98%
    02:00 +18°C° 0 mm 2 m/s 751 mmHg 98%
    03:00 +18°C° 0,1 mm 2 m/s 751 mmHg 98%
    04:00 +18°C° 0,1 mm 2 m/s 751 mmHg 98%
    05:00 +18°C° 0,1 mm 2 m/s 751 mmHg 98%
    06:00 +19°C° 0,1 mm 2 m/s 751 mmHg 97%
    07:00 +20°C° 0,1 mm 2 m/s 751 mmHg 96%
    08:00 +20°C° 0,1 mm 3 m/s 751 mmHg 95%
    09:00 +21°C° 0 mm 3 m/s 751 mmHg 93%
    10:00 +21°C° 0 mm 2 m/s 751 mmHg 91%
    11:00 +23°C° 0 mm 2 m/s 752 mmHg 89%
    12:00 +24°C° 0,5 mm 3 m/s 752 mmHg 86%
    13:00 +25°C° 0,5 mm 3 m/s 751 mmHg 84%
    14:00 +25°C° 0,5 mm 3 m/s 751 mmHg 82%
    15:00 +25°C° 0,4 mm 3 m/s 751 mmHg 81%
    16:00 +25°C° 0,4 mm 3 m/s 751 mmHg 80%
    17:00 +25°C° 0,4 mm 3 m/s 751 mmHg 79%
    18:00 +24°C° 0 mm 3 m/s 751 mmHg 81%
    19:00 +23°C° 0 mm 2 m/s 751 mmHg 83%
    20:00 +21°C° 0 mm 2 m/s 751 mmHg 85%
    21:00 +20°C° 0 mm 2 m/s 751 mmHg 85%
    22:00 +19°C° 0 mm 2 m/s 752 mmHg 86%
    23:00 +18°C° 0 mm 2 m/s 752 mmHg 87%

    26 Juillet, Jeudi

    Heure Température Précipitation Vent Pression Humidité
    00:00 +18°C° 0 mm 2 m/s 752 mmHg 89%
    01:00 +17°C° 0 mm 2 m/s 752 mmHg 90%
    02:00 +17°C° 0 mm 2 m/s 752 mmHg 92%
    03:00 +17°C° 0 mm 2 m/s 752 mmHg 93%
    04:00 +17°C° 0 mm 2 m/s 752 mmHg 93%
    05:00 +17°C° 0 mm 2 m/s 752 mmHg 94%
    06:00 +19°C° 0,1 mm 2 m/s 753 mmHg 92%
    07:00 +20°C° 0,1 mm 2 m/s 753 mmHg 90%
    08:00 +21°C° 0,1 mm 3 m/s 753 mmHg 88%
    09:00 +21°C° 0,1 mm 3 m/s 753 mmHg 87%
    10:00 +22°C° 0,1 mm 3 m/s 753 mmHg 86%
    11:00 +24°C° 0,1 mm 3 m/s 753 mmHg 84%
    12:00 +25°C° 0,8 mm 3 m/s 753 mmHg 82%
    13:00 +26°C° 0,8 mm 3 m/s 753 mmHg 80%
    14:00 +27°C° 0,8 mm 4 m/s 753 mmHg 78%
    15:00 +28°C° 0,1 mm 3 m/s 753 mmHg 75%
    16:00 +28°C° 0,1 mm 3 m/s 753 mmHg 72%
    17:00 +28°C° 0,1 mm 2 m/s 753 mmHg 70%
    18:00 +27°C° 0,2 mm 2 m/s 753 mmHg 75%
    19:00 +25°C° 0,2 mm 2 m/s 753 mmHg 81%
    20:00 +24°C° 0,2 mm 2 m/s 754 mmHg 86%
    21:00 +23°C° 0 mm 2 m/s 754 mmHg 88%
    22:00 +21°C° 0 mm 2 m/s 754 mmHg 90%
    23:00 +20°C° 0 mm 2 m/s 754 mmHg 91%

    27 Juillet, Vendredi

    Heure Température Précipitation Vent Pression Humidité
    00:00 +20°C° 0,2 mm 2 m/s 754 mmHg 93%
    01:00 +20°C° 0,2 mm 2 m/s 755 mmHg 94%
    02:00 +19°C° 0,2 mm 2 m/s 755 mmHg 96%
    03:00 +19°C° 0 mm 2 m/s 755 mmHg 96%
    04:00 +19°C° 0 mm 2 m/s 755 mmHg 96%
    05:00 +19°C° 0 mm 2 m/s 755 mmHg 96%
    06:00 +21°C° 0 mm 2 m/s 755 mmHg 92%
    07:00 +22°C° 0 mm 3 m/s 755 mmHg 87%
    08:00 +24°C° 0 mm 3 m/s 755 mmHg 83%
    09:00 +26°C° 0 mm 3 m/s 755 mmHg 75%
    10:00 +28°C° 0 mm 3 m/s 755 mmHg 67%
    11:00 +29°C° 0 mm 4 m/s 755 mmHg 60%
    12:00 +30°C° 0,4 mm 4 m/s 755 mmHg 61%
    13:00 +30°C° 0,4 mm 3 m/s 755 mmHg 62%
    14:00 +30°C° 0,4 mm 3 m/s 755 mmHg 64%
    15:00 +30°C° 1 mm 3 m/s 755 mmHg 67%
    16:00 +29°C° 1 mm 3 m/s 755 mmHg 69%
    17:00 +29°C° 1 mm 3 m/s 755 mmHg 72%
    18:00 +27°C° 0,3 mm 3 m/s 755 mmHg 77%
    19:00 +26°C° 0,3 mm 3 m/s 755 mmHg 81%
    20:00 +24°C° 0,3 mm 3 m/s 756 mmHg 86%
    21:00 +24°C° 0 mm 3 m/s 756 mmHg 87%
    22:00 +22°C° 0 mm 3 m/s 756 mmHg 88%
    23:00 +21°C° 0 mm 3 m/s 756 mmHg 89%
    Voir plus